Location: Allentsgschwendt
(48.4833°N, 15.3333°E)
Time: 23:58:22
(UTC+00:00)

Daily predictions for brighter satellites

Satellite Brightness Start Highest point End
(mag) Time Altitude Azimuth Time Altitude Azimuth Time Altitude Azimuth
USA 215 3.4 15:31:45 10° ENE 15:38:18 73° SE 15:44:50 10° SW
Meteor 2-6 Rocket 4.3 15:33:37 10° S 15:38:51 56° E 15:44:10 10° NNE
Okean-O 3.7 15:36:50 10° ESE 15:40:19 23° ENE 15:43:49 10° N
Cosmos 2369 Rocket 4.0 15:38:17 10° N 15:40:23 12° NNE 15:42:28 10° NE
Cosmos 1980 Rocket 4.4 15:38:06 10° WNW 15:40:47 13° NNW 15:43:28 10° N
SMAP 3.5 15:37:04 10° SE 15:41:23 39° ENE 15:45:44 10° N
Cosmos 1634 Rocket 4.5 15:36:05 10° NNW 15:42:12 68° W 15:48:20 10° S
Shenzhou-11 Module 3.7 15:40:17 10° WSW 15:42:36 24° S 15:44:54 10° ESE
Cosmos 1782 3.2 15:39:36 10° SSW 15:43:35 68° WNW 15:47:34 10° N
STARLINK-46 2.5 15:41:39 10° WSW 15:44:19 74° SSE 15:47:01 10° ENE
Cosmos 1346 Rocket 3.3 15:40:46 10° NNW 15:44:43 65° W 15:48:40 10° S
SL-16 R/B 4.0 15:44:02 10° ESE 15:46:12 12° E 15:48:22 10° ENE
PSLV R/B 4.4 15:43:29 10° NNE 15:47:28 42° E 15:51:22 10° S
BREEZE-M R/B 3.4 15:41:03 10° W 15:48:18 81° N 15:51:51 10° E
Cosmos 1900 4.4 15:44:08 10° NNW 15:48:56 52° NE 15:53:42 10° SE
ALOS 3.2 15:46:18 10° S 15:50:51 54° W 15:55:27 10° NNW
Cosmos 2251 Rocket 4.0 15:46:16 10° S 15:51:15 42° ESE 15:56:13 10° NE
Cosmos 1315 Rocket 3.2 15:48:39 10° SSW 15:52:38 70° WNW 15:56:42 10° N
ISS -3.0 15:50:15 10° WNW 15:53:33 54° SSW 15:56:50 10° SE
Cosmos 304 Rocket 4.4 15:49:11 10° NNW 15:53:57 61° WSW 15:58:41 10° S
Cosmos 2333 Rocket 2.3 15:48:15 10° SSW 15:54:00 87° ESE 15:59:49 10° NNE
COSMO-SKYMED 1 4.3 15:52:36 10° ENE 15:54:50 14° E 15:57:03 10° ESE
Nadezhda 4 Rocket 4.4 15:49:33 10° SSE 15:55:29 45° E 16:01:26 10° NNE
Cosmos 2237 Rocket 2.8 15:50:54 10° S 15:56:05 37° ESE 16:01:17 10° NE
Radarsat Rocket 4.3 15:52:46 10° SSE 15:58:54 73° WSW 16:04:45 10° NNW
AQUARIUS 4.3 15:55:15 10° SE 15:59:37 51° ENE 16:03:59 10° N
Cosmos 2322 Rocket 4.0 15:55:48 10° W 16:00:14 23° NW 16:04:41 10° N
Meteor 1-10 Rocket 4.2 15:56:05 10° S 16:01:37 76° E 16:07:15 10° NNE
YAOGAN 1 4.0 16:01:16 10° E 16:03:56 16° ENE 16:06:37 10° NNE
Envisat 3.5 15:59:40 10° SE 16:04:18 37° ENE 16:08:57 10° N
Cosmos 292 Rocket 4.2 15:59:44 10° N 16:04:20 40° ENE 16:08:55 10° SE
CORIOLIS 4.2 15:59:16 10° SSE 16:04:35 58° ENE 16:09:56 10° N
Cosmos 1812 2.9 16:00:55 10° S 16:04:39 50° E 16:08:25 10° NNE
Helios 1A Rocket 4.1 16:01:27 10° S 16:05:25 48° W 16:09:24 10° NNW
COSMOS 2455 4.5 16:02:22 10° W 16:07:17 25° NNW 16:12:13 10° NNE
COBE Rocket 4.1 16:03:08 10° NNE 16:07:38 46° E 16:12:08 10° S
Okean 1-7 4.5 16:04:39 10° SE 16:07:38 18° E 16:09:47 13° NE
Cosmos 2219 Rocket 2.4 16:03:02 10° SSW 16:08:39 77° WNW 16:14:20 10° NNE
SL-16 R/B 4.2 16:04:42 10° W 16:08:41 19° NW 16:12:43 10° N
ATLAS 3B R/B 4.5 16:04:39 10° NW 16:10:39 35° WSW 16:16:46 10° S
YAOGAN 6 3.8 16:08:03 10° ESE 16:10:48 21° ENE 16:13:35 10° NNE
IRS-1C Rocket 4.1 16:06:31 10° SSE 16:11:48 83° ENE 16:17:06 10° NNW
USA 267 3.5 16:07:01 10° SE 16:13:34 74° SW 16:20:07 10° WNW
Cosmos 1733 Rocket 3.1 16:09:13 10° N 16:13:37 87° W 16:18:01 10° S
Cosmos 1992 Rocket 3.9 16:09:48 10° NNW 16:15:03 82° ENE 16:20:18 10° SSE
Meteor 1-11 Rocket 3.9 16:09:29 10° N 16:15:31 87° E 16:21:29 10° S
CZ-4B R/B 3.8 16:12:53 10° NNW 16:15:43 23° WNW 16:18:30 10° WSW
Exosat Rocket 3.5 16:10:33 10° SSW 16:15:46 66° ESE 16:20:46 10° NNE
Cosmos 1500 3.1 16:13:45 10° N 16:17:32 87° W 16:21:17 10° S
Cosmos 1943 Rocket 3.5 16:15:19 10° N 16:19:26 20° NE 16:21:33 17° ENE
NOSS 3-4 (A) 4.1 16:13:50 10° WSW 16:19:43 50° NW 16:25:51 11° NE
Meteor 1-27 Rocket 3.8 16:14:05 10° S 16:19:46 67° E 16:25:36 10° NNE
NOSS 3-4 (C) 4.1 16:13:56 10° WSW 16:19:50 50° NW 16:25:57 11° NE
BREEZE-M DEB (TANK) 2.6 16:19:04 10° WNW 16:25:15 67° SSW 16:27:30 13° ESE
Cosmos 1867 4.3 16:21:28 10° NNW 16:26:27 34° NE 16:29:57 17° E
Cosmos 1980 3.7 16:21:25 10° SSW 16:27:00 67° ESE 16:32:12 12° NNE
ATLAS 5 CENTAUR R/B 1.3 16:27:04 10° SSW 16:29:13 34° SE 16:29:34 31° ESE
CSL-04 Rocket 4.2 16:26:33 10° SE 16:31:12 33° ENE 16:35:54 10° N
Cosmos 2297 3.9 16:27:00 10° NNW 16:32:34 50° NE 16:38:03 10° SE
RESURS DK-1 3.2 16:29:26 10° SW 16:33:25 48° NW 16:37:12 11° NNE
H-2A R/B 3.0 16:32:11 10° S 16:35:51 66° WSW 16:39:32 10° NNW
Cosmos 921 Rocket 3.4 16:31:54 10° N 16:35:56 39° ENE 16:40:01 10° SE
NOSS 0 Rocket 3.9 16:30:10 10° SSW 16:36:23 88° ESE 16:42:17 12° NNE
Cosmos 1441 Rocket 3.5 16:32:51 10° N 16:36:32 42° ENE 16:40:08 10° SE
SKYMED 2 4.0 16:41:07 22° NE 16:43:24 38° E 16:47:27 10° SSE
Cosmos 1782 Rocket 3.7 16:40:16 10° N 16:44:29 46° ENE 16:48:39 10° SSE
Sich 1 Rocket 4.0 16:41:40 10° N 16:45:47 37° ENE 16:49:51 10° SE
COSMOS 2428 3.7 16:41:28 10° SW 16:46:54 44° NW 16:52:22 10° NNE
CSL-04 Debris 4.4 16:42:17 10° SE 16:47:27 44° ENE 16:52:35 10° N
Ariane Rocket 4.4 16:49:10 20° NE 16:49:10 20° NE 16:51:32 10° N
Cosmos 1263 3.9 16:47:12 10° S 16:50:13 78° E 16:51:23 34° NNE
Cosmos 1536 3.4 16:47:28 10° NNW 16:51:26 58° W 16:55:22 10° S
FALCON 9 DEB 3.8 16:49:11 10° SW 16:52:29 41° SE 16:53:03 37° ESE
Cosmos 1862 Rocket 4.4 16:49:47 10° SSW 16:54:02 51° WNW 16:58:21 10° N
Cosmos 2195 Rocket 4.4 16:48:18 10° S 16:54:26 65° E 17:00:40 10° NNE
Genesis I 3.0 16:52:08 10° NW 16:56:04 82° NE 16:58:25 22° SE
Cosmos 1703 Rocket 3.5 16:52:37 10° S 16:57:02 65° E 17:00:18 18° NNE
ATLAS 2AS CENTAUR R/B 4.1 16:50:51 10° W 16:58:12 37° NNW 17:03:59 16° NNE
SeaSat 1 3.9 17:02:16 20° NNE 17:02:16 20° NNE 17:04:55 10° N
Cosmos 1666 3.0 16:58:11 10° NNW 17:01:55 65° W 17:05:36 10° S
Cosmos 1092 Rocket 3.9 16:56:46 10° S 17:03:04 87° E 17:09:23 10° N
STARLINK-67 4.2 17:01:24 10° WNW 17:03:17 26° NNW 17:03:17 26° NNW
Lacrosse 5 rocket 1.9 17:00:48 10° WSW 17:04:55 48° NNW 17:06:10 35° NNE
Cosmos 2242 Rocket 4.1 17:01:25 10° SSW 17:05:57 63° WNW 17:10:31 10° N
Cosmos 1190 Rocket 4.3 17:01:08 10° S 17:05:58 41° ESE 17:06:48 38° E
NOAA 11 4.3 17:04:45 10° SE 17:10:01 52° ENE 17:15:20 10° N
Aureole 1 Rocket 2.1 17:08:28 10° SSW 17:11:21 81° WSW 17:11:21 81° WSW
CZ-4 R/B 1.1 17:07:40 10° SSE 17:11:35 81° ENE 17:15:27 10° NNW
Cosmos 2278 Rocket 4.1 17:07:37 10° NW 17:12:32 31° WSW 17:17:27 10° SSW
SL-4 R/B 2.2 17:09:01 10° W 17:12:46 54° N 17:13:11 51° NNE
FengYun 1-2 T 4.3 17:08:57 10° SSE 17:14:26 81° WSW 17:19:59 10° NNW
Okean 1 3.5 17:10:39 10° S 17:13:59 50° SE 17:13:59 50° SE
Okean-O 3.7 17:12:18 10° S 17:16:33 45° W 17:20:50 10° NNW
STARLINK-52 3.7 17:13:09 10° SW 17:16:09 47° S 17:16:09 47° S
Shenzhou-11 Module 4.3 17:15:25 10° WSW 17:17:17 17° SSW 17:17:18 17° SSW
USA 215 3.7 17:17:58 29° NE 17:21:13 54° NNW 17:27:32 10° W
STARLINK-29 3.8 17:21:12 10° SW 17:24:04 51° SSW 17:24:04 51° SSW
Cosmos 2344 4.4 17:16:56 10° NW 17:25:40 51° NE 17:30:41 33° E
Cosmos 2369 Rocket 2.7 17:20:43 10° NNW 17:25:28 40° NE 17:25:28 40° NE
Cosmos 1743 2.7 17:23:43 10° NNW 17:27:35 79° W 17:31:28 10° S
USA 116 4.3 17:26:03 35° NNE 17:28:21 72° ESE 17:33:27 10° S
SL-16 R/B 2.1 17:23:38 10° SSW 17:29:17 75° ESE 17:30:56 47° NE
ISS -0.5 17:28:49 10° WSW 17:29:42 11° SW 17:30:34 10° SSW
COSMO-SKYMED 1 2.7 17:29:39 34° N 17:31:29 71° WNW 17:35:48 10° SSW
S3M 3.9 17:27:35 10° N 17:33:48 64° ENE 17:39:53 10° SSE
Cosmos 614 Rocket 3.8 17:28:57 10° SSW 17:34:02 83° ESE 17:34:58 60° NNE
Cosmos 1174 4.0 17:29:45 10° SSW 17:34:31 76° SSE 17:34:31 76° SSE
Meteor 2-13 Rocket 4.4 17:32:04 10° S 17:37:57 56° E 17:38:03 56° E
Cosmos 2333 Rocket 4.2 17:34:35 10° W 17:39:03 23° NW 17:43:07 12° N
YAOGAN 1 2.8 17:35:15 10° S 17:39:33 67° W 17:43:53 10° NNW
Cosmos 2237 Rocket 3.2 17:34:42 10° SW 17:40:06 42° NW 17:43:32 21° N
Meteor 1-19 Rocket 4.0 17:37:27 10° S 17:42:50 69° ESE 17:42:50 69° ESE
YAOGAN 6 4.4 17:40:59 10° SSW 17:44:09 30° W 17:47:22 10° NNW
Okean 1-7 3.9 17:40:37 10° SSW 17:44:49 49° WNW 17:46:42 29° NNW
Cosmos 1553 Rocket 4.0 17:40:29 10° N 17:46:52 83° W 17:53:17 10° S
Cosmos 1140 Rocket 3.6 17:46:07 10° SSW 17:50:28 64° S 17:50:28 64° S
Cosmos 2219 Rocket 4.4 17:49:43 10° W 17:53:36 19° NW 17:57:01 12° N
Cosmos 407 Rocket 3.6 17:49:13 10° SSW 17:54:25 72° WNW 17:55:05 63° NNW
NOSS 3-1 (C) 4.0 17:51:56 10° NW 17:59:07 60° NE 17:59:48 58° ENE
IRS-1A Rocket 4.5 18:01:26 63° N 18:01:26 63° N 18:06:26 10° NNW
Cosmos 1943 Rocket 2.3 17:58:23 10° NNW 18:03:07 63° NNW 18:03:07 63° NNW
USA 229 DEB 3.8 18:00:40 10° NW 18:07:48 66° NE 18:07:48 66° NE
USA 229 3.8 18:00:47 10° NW 18:07:53 66° NE 18:07:53 66° NE
Cosmos 1867 4.0 18:04:59 10° NW 18:10:22 59° WSW 18:10:41 58° SW
NOSS 3-1 (A) 4.2 18:06:04 10° NW 18:12:35 53° NNE 18:12:35 53° NNE
Lacrosse 5 rocket 4.4 18:41:25 10° WNW 18:41:49 12° WNW 18:41:49 12° WNW
ATLAS 2AS CENTAUR R/B 4.4 18:45:02 10° NW 18:51:24 26° N 18:51:24 26° N
USA 215 4.4 19:05:19 36° NW 19:05:19 36° NW 19:09:39 10° WNW
Cosmos 2369 Rocket 4.2 19:04:53 10° NW 19:07:18 24° WNW 19:07:18 24° WNW
SL-16 R/B 4.2 19:09:23 10° W 19:12:51 23° WNW 19:12:51 23° WNW
